Oconto, WI

2:34 AM CDT on September 16, 2019 (GMT -0500)
Oconto Municipal

Weather History for KOCQ - June, 2019

Change the Weather History Date:

Wednesday, June 12, 2019

  Actual Average Record
Temperature  
Mean Temperature 55 °F -  
Max Temperature 61 °F 74 °F 82 °F (2017)
Min Temperature 50 °F 52 °F 44 °F (2016)
Degree Days  
Heating Degree Days 10    
Growing Degree Days 5 (Base 50)    
Moisture  
Dew Point 54 °F    
Average Humidity 93    
Maximum Humidity 99    
Minimum Humidity 72    
Precipitation  
Precipitation 1.08 in - - ()
Sea Level Pressure  
Sea Level Pressure 29.91 in    
Wind  
Wind Speed 4 mph (NW)    
Max Wind Speed 12 mph    
Max Gust Speed 16 mph    
Visibility 9 miles    
Events      
Averages and records for this station are not official NWS values.
T = Trace of Precipitation, MM = Missing Value Source: NWS Daily Summary

Daily Weather History Graph

Daily Weather History Graph

Search for Another Location

Airport or City:

Astronomy

Jun. 12, 2019 Rise Set
Actual Time 5:05 AM CDT 8:38 PM CDT
Civil Twilight 4:27 AM CDT 9:15 PM CDT
Nautical Twilight 3:38 AM CDT 10:04 PM CDT
Astronomical Twilight 2:35 AM CDT 11:08 PM CDT
Moon 3:31 PM CDT (6/12) 2:34 AM CDT (6/12)
Length of Visible Light 16h 47m
Length of Day
15h 33m
Waxing Gibbous, 77% of the Moon is Illuminated
Jun 12
Waxing Gibbous
Jun 17
Full
Jun 25
Last Quarter
Jul 2
New
Jul 9
First Quarter

Hourly Weather History & Observations

Time (CDT) Temp. Dew Point Humidity Pressure Visibility Wind Dir Wind Speed Gust Speed Precip Events Conditions
12:15 AM 59.4 °F 53.8 °F 82% 30.01 in 10.0 mi Calm Calm - N/A   Overcast
12:35 AM 59.2 °F 53.1 °F 80% 30.00 in 10.0 mi NW 4.6 mph - N/A   Overcast
12:55 AM 59.9 °F 51.8 °F 75% 30.00 in 10.0 mi WNW 5.8 mph - N/A   Overcast
1:15 AM 60.1 °F 50.9 °F 72% 30.00 in 10.0 mi West 9.2 mph - N/A   Overcast
1:35 AM 58.8 °F 52.0 °F 78% 30.00 in 10.0 mi West 6.9 mph - N/A   Overcast
1:55 AM 57.2 °F 53.1 °F 86% 30.00 in 10.0 mi West 4.6 mph - 0.01 in   Overcast
2:35 AM 56.3 °F 54.0 °F 92% 29.99 in 10.0 mi WNW 3.5 mph - N/A   Overcast
2:55 AM 55.8 °F 54.0 °F 94% 29.99 in 10.0 mi West 4.6 mph - 0.01 in   Overcast
3:15 AM 55.6 °F 54.1 °F 95% 29.99 in 10.0 mi West 4.6 mph - 0.01 in   Overcast
3:35 AM 55.4 °F 54.5 °F 97% 29.98 in 10.0 mi West 4.6 mph - 0.02 in   Overcast
3:55 AM 55.4 °F 54.5 °F 97% 29.97 in 7.0 mi NW 3.5 mph - 0.03 in   Overcast
4:15 AM 55.4 °F 54.5 °F 97% 29.96 in 10.0 mi Calm Calm - 0.02 in   Overcast
4:35 AM 55.4 °F 54.5 °F 97% 29.95 in 10.0 mi Calm Calm - 0.03 in   Overcast
4:55 AM 55.4 °F 54.5 °F 97% 29.95 in 10.0 mi Calm Calm - 0.04 in   Overcast
5:15 AM 55.4 °F 54.7 °F 97% 29.95 in 7.0 mi Calm Calm - 0.01 in   Overcast
5:35 AM 55.2 °F 54.7 °F 98% 29.95 in 7.0 mi Calm Calm - 0.02 in   Overcast
5:55 AM 55.4 °F 54.9 °F 98% 29.94 in 7.0 mi Calm Calm - 0.03 in   Overcast
6:15 AM 55.2 °F 54.7 °F 98% 29.93 in 5.0 mi Calm Calm - 0.01 in   Overcast
6:35 AM 55.4 °F 54.9 °F 98% 29.94 in 7.0 mi Calm Calm - 0.02 in   Overcast
6:55 AM 55.6 °F 55.2 °F 99% 29.93 in 7.0 mi Calm Calm - 0.03 in   Overcast
7:15 AM 55.8 °F 55.4 °F 99% 29.93 in 7.0 mi Calm Calm - 0.02 in   Overcast
7:35 AM 55.9 °F 55.4 °F 98% 29.93 in 7.0 mi Calm Calm - 0.03 in   Overcast
7:55 AM 56.5 °F 55.6 °F 97% 29.93 in 7.0 mi Calm Calm - 0.04 in   Overcast
8:15 AM 57.4 °F 56.5 °F 97% 29.92 in 10.0 mi Calm Calm - N/A   Overcast
8:55 AM 58.5 °F 56.8 °F 94% 29.92 in 10.0 mi SSW 4.6 mph - N/A   Overcast
9:15 AM 58.6 °F 56.7 °F 93% 29.91 in 10.0 mi South 5.8 mph - N/A   Overcast
9:35 AM 58.5 °F 56.3 °F 93% 29.90 in 10.0 mi South 3.5 mph - N/A   Overcast
9:55 AM 59.0 °F 56.8 °F 93% 29.90 in 10.0 mi SSW 4.6 mph - N/A   Overcast
10:15 AM 58.6 °F 56.5 °F 93% 29.89 in 10.0 mi SSW 4.6 mph - N/A   Overcast
10:35 AM 59.0 °F 56.8 °F 93% 29.89 in 10.0 mi South 4.6 mph - N/A   Overcast
10:55 AM 59.0 °F 56.3 °F 91% 29.89 in 10.0 mi SW 4.6 mph - 0.01 in   Overcast
11:15 AM 58.1 °F 56.1 °F 93% 29.89 in 4.0 mi SW 3.5 mph - 0.06 in   Overcast
11:35 AM 57.6 °F 56.1 °F 95% 29.89 in 2.5 mi West 3.5 mph - 0.24 in   Overcast
11:55 AM 57.2 °F 55.2 °F 93% 29.89 in 0.8 mi WSW 9.2 mph - 0.56 in   Overcast
12:15 PM 57.7 °F 56.3 °F 95% 29.89 in 7.0 mi West 6.9 mph - 0.01 in   Overcast
12:35 PM 59.7 °F 57.6 °F 93% 29.88 in 10.0 mi WSW 6.9 mph - 0.01 in   Overcast
12:55 PM 60.8 °F 57.7 °F 90% 29.88 in 10.0 mi West 8.1 mph - 0.01 in   Overcast
1:15 PM 59.7 °F 55.4 °F 86% 29.88 in 10.0 mi West 8.1 mph - N/A   Overcast
1:35 PM 59.5 °F 56.3 °F 89% 29.88 in 10.0 mi West 6.9 mph - N/A   Overcast
1:55 PM 59.4 °F 56.8 °F 91% 29.87 in 7.0 mi WSW 4.6 mph - 0.02 in   Overcast
2:15 PM 59.4 °F 57.0 °F 92% 29.86 in 10.0 mi West 4.6 mph - N/A   Overcast
2:35 PM 59.5 °F 56.1 °F 88% 29.86 in 10.0 mi Calm Calm - N/A   Overcast
2:55 PM 56.8 °F 54.3 °F 91% 29.86 in 5.0 mi NNW 3.5 mph - 0.05 in   Overcast
3:15 PM 57.6 °F 55.6 °F 93% 29.86 in 10.0 mi North 3.5 mph - 0.01 in   Overcast
3:35 PM 58.3 °F 55.4 °F 90% 29.86 in 10.0 mi North 5.8 mph - 0.01 in   Overcast
3:55 PM 56.8 °F 53.6 °F 89% 29.86 in 10.0 mi North 8.1 mph 16.1 mph 0.01 in   Overcast
4:15 PM 56.5 °F 54.0 °F 91% 29.86 in 10.0 mi North 11.5 mph 16.1 mph N/A   Overcast
4:35 PM 56.1 °F 53.2 °F 90% 29.86 in 10.0 mi North 8.1 mph 16.1 mph N/A   Overcast
4:55 PM 55.6 °F 52.7 °F 90% 29.87 in 10.0 mi North 10.4 mph - N/A   Overcast
5:15 PM 55.4 °F 53.4 °F 93% 29.87 in 10.0 mi NNE 8.1 mph - 0.01 in   Overcast
5:35 PM 54.9 °F 53.1 °F 94% 29.88 in 10.0 mi NNE 9.2 mph - 0.03 in   Overcast
5:55 PM 54.5 °F 53.1 °F 95% 29.88 in 7.0 mi NNE 6.9 mph - 0.06 in   Overcast
6:15 PM 54.5 °F 53.4 °F 96% 29.89 in 7.0 mi NNE 6.9 mph - 0.03 in   Overcast
6:35 PM 53.8 °F 52.3 °F 95% 29.89 in 7.0 mi NE 10.4 mph - 0.06 in   Overcast
6:55 PM 53.1 °F 51.8 °F 95% 29.90 in 7.0 mi NNE 6.9 mph - 0.10 in   Overcast
7:15 PM 52.7 °F 51.3 °F 95% 29.90 in 7.0 mi NNE 8.1 mph - 0.02 in   Overcast
7:35 PM 52.0 °F 50.4 °F 94% 29.91 in 10.0 mi NNE 9.2 mph - 0.03 in   Overcast
7:55 PM 51.6 °F 49.8 °F 94% 29.91 in 10.0 mi NNE 9.2 mph 16.1 mph 0.04 in   Overcast
8:15 PM 51.1 °F 49.5 °F 94% 29.91 in 10.0 mi North 8.1 mph - 0.01 in   Overcast
8:35 PM 50.9 °F 49.5 °F 95% 29.91 in 10.0 mi North 8.1 mph - 0.03 in   Overcast
8:55 PM 50.9 °F 49.1 °F 94% 29.91 in 10.0 mi NNE 8.1 mph - 0.03 in   Overcast
9:15 PM 50.9 °F 49.3 °F 94% 29.91 in 10.0 mi NNE 5.8 mph - N/A   Overcast
9:35 PM 50.9 °F 49.5 °F 95% 29.91 in 10.0 mi North 4.6 mph - N/A   Overcast
9:55 PM 50.9 °F 49.3 °F 94% 29.91 in 10.0 mi NNE 4.6 mph - N/A   Overcast
10:15 PM 51.1 °F 49.5 °F 94% 29.90 in 10.0 mi NNE 5.8 mph - N/A   Overcast
10:35 PM 51.1 °F 49.3 °F 94% 29.89 in 10.0 mi North 6.9 mph - N/A   Overcast
10:55 PM 51.1 °F 49.3 °F 94% 29.89 in 10.0 mi North 6.9 mph - N/A   Mostly Cloudy
11:15 PM 50.9 °F 49.1 °F 94% 29.89 in 10.0 mi North 8.1 mph - N/A   Scattered Clouds
11:35 PM 50.7 °F 48.6 °F 92% 29.88 in 10.0 mi North 8.1 mph - N/A   Scattered Clouds
11:55 PM 50.5 °F 47.5 °F 89% 29.88 in 10.0 mi North 4.6 mph - N/A   Clear